Torna al catalogo

DELTA 2 R/B(1)

AttivoVLEO
NORAD 20453·ROCKET BODY·🇺🇸 United States

Lanciato Jan 24, 1990 da Cape Canaveral Space Force Station

Loading…

Prossimi Passaggi (prossime 24 ore)

TLE

AggiornatoSource: Space-Track

Epoca: Sep 14, 2026, 14:57 UTC

1 20453U 90008B   26257.62309364  .00284328  31736-4  74677-3 0  9991
2 20453  35.5942 348.7394 0026006 251.3191 108.4733 15.93151689955843

Traccia DELTA 2 R/B(1) in tempo reale con AllMySat

Download on the App Store